TimeEDT,TemperatureF,Dew PointF,Humidity,Sea Level PressureIn,VisibilityMPH,Wind Direction,Wind SpeedMPH,Gust SpeedMPH,PrecipitationIn,Events,Conditions,WindDirDegrees,DateUTC
12:54 AM,71.1,66.9,87,29.89,8.0,Calm,Calm,-,N/A,,Clear,0,2013-08-28 04:54:00
1:54 AM,70.0,66.9,90,29.88,8.0,Calm,Calm,-,N/A,,Scattered Clouds,0,2013-08-28 05:54:00
2:54 AM,70.0,66.0,87,29.87,8.0,Calm,Calm,-,N/A,,Clear,0,2013-08-28 06:54:00
3:54 AM,70.0,66.0,87,29.86,8.0,Calm,Calm,-,N/A,,Scattered Clouds,0,2013-08-28 07:54:00
4:54 AM,69.1,66.0,90,29.86,3.0,Calm,Calm,-,0.01,Rain,Light Rain,0,2013-08-28 08:54:00
5:45 AM,69.8,66.2,88,29.88,7.0,Calm,Calm,-,0.03,Rain,Light Rain,0,2013-08-28 09:45:00
5:54 AM,69.1,66.9,93,29.87,6.0,Calm,Calm,-,0.03,,Overcast,0,2013-08-28 09:54:00
6:16 AM,69.8,66.2,88,29.88,7.0,Calm,Calm,-,0.00,Rain,Light Rain,0,2013-08-28 10:16:00
6:32 AM,69.8,66.2,88,29.88,7.0,Calm,Calm,-,0.00,,Overcast,0,2013-08-28 10:32:00
6:54 AM,70.0,66.9,90,29.87,5.0,Calm,Calm,-,0.00,,Overcast,0,2013-08-28 10:54:00
7:01 AM,69.8,66.2,88,29.88,4.0,Calm,Calm,-,0.00,Rain,Light Rain,0,2013-08-28 11:01:00
7:54 AM,70.0,68.0,93,29.88,4.0,Calm,Calm,-,0.00,,Overcast,0,2013-08-28 11:54:00
8:41 AM,71.6,68.0,88,29.89,5.0,Calm,Calm,-,N/A,,Overcast,0,2013-08-28 12:41:00
8:54 AM,71.1,68.0,90,29.88,4.0,Calm,Calm,-,N/A,,Overcast,0,2013-08-28 12:54:00
9:54 AM,71.1,68.0,90,29.88,3.0,ESE,3.5,-,N/A,,Overcast,120,2013-08-28 13:54:00
10:01 AM,71.6,69.8,94,29.88,5.0,East,3.5,-,N/A,,Overcast,100,2013-08-28 14:01:00
10:54 AM,73.0,69.1,87,29.87,5.0,East,4.6,-,0.00,,Overcast,100,2013-08-28 14:54:00
11:45 AM,73.4,69.8,88,29.87,6.0,East,4.6,-,0.00,,Overcast,100,2013-08-28 15:45:00
11:54 AM,73.0,69.1,87,29.86,5.0,ESE,4.6,-,0.00,,Overcast,120,2013-08-28 15:54:00
12:54 PM,73.9,70.0,87,29.85,6.0,SE,3.5,-,0.00,,Overcast,130,2013-08-28 16:54:00
1:54 PM,75.9,70.0,82,29.84,7.0,East,4.6,-,N/A,,Overcast,100,2013-08-28 17:54:00
2:54 PM,77.0,68.0,74,29.83,8.0,Calm,Calm,-,0.00,Rain,Light Rain,0,2013-08-28 18:54:00
3:54 PM,79.0,66.9,66,29.82,10.0,Calm,Calm,-,0.00,,Overcast,0,2013-08-28 19:54:00
4:54 PM,77.0,69.1,76,29.83,5.0,Calm,Calm,-,0.00,Rain,Light Rain,0,2013-08-28 20:54:00
5:54 PM,79.0,69.1,72,29.82,10.0,Calm,Calm,-,0.00,,Mostly Cloudy,0,2013-08-28 21:54:00
6:54 PM,77.0,70.0,79,29.83,9.0,Calm,Calm,-,N/A,,Clear,0,2013-08-28 22:54:00
7:54 PM,75.0,70.0,84,29.85,6.0,Calm,Calm,-,N/A,,Haze,0,2013-08-28 23:54:00
8:54 PM,73.9,70.0,87,29.86,8.0,Calm,Calm,-,0.00,Rain,Light Rain,0,2013-08-29 00:54:00
9:54 PM,72.0,69.1,91,29.86,7.0,West,3.5,-,0.00,,Clear,260,2013-08-29 01:54:00
10:37 PM,71.6,69.8,94,29.89,5.0,Calm,Calm,-,N/A,,Mostly Cloudy,0,2013-08-29 02:37:00
10:54 PM,72.0,69.1,91,29.89,5.0,Calm,Calm,-,N/A,,Overcast,0,2013-08-29 02:54:00
11:11 PM,71.6,69.8,94,29.90,5.0,Calm,Calm,-,N/A,,Overcast,0,2013-08-29 03:11:00
11:20 PM,71.6,69.8,94,29.90,5.0,Calm,Calm,-,N/A,,Mostly Cloudy,0,2013-08-29 03:20:00
11:33 PM,71.6,69.8,94,29.90,4.0,Calm,Calm,-,N/A,,Mostly Cloudy,0,2013-08-29 03:33:00
11:52 PM,71.6,69.8,94,29.90,5.0,North,3.5,-,N/A,,Mostly Cloudy,10,2013-08-29 03:52:00
11:54 PM,72.0,69.1,91,29.89,5.0,Calm,Calm,-,N/A,,Mostly Cloudy,0,2013-08-29 03:54:00